Terminal Aerodrome Forecast
Issued by NWS

Home | Current Version | Previous Version | Text Only | Print | Product List | Glossary On
Versions: 1 2 3 4 5 6 7 8 9 10 11 12 13 14 15 16 17 18 19 20 21
000
FTUS46 KLOX 181100
TAFWJF
TAF
KWJF 181130Z 1812/1912 VRB03KT P6SM BKN080
     FM182200 30008KT P6SM SCT025 SCT050
     FM190600 VRB03KT P6SM SCT050=

USA.gov is the U.S. government's official web portal to all federal, state and local government web resources and services.